Location: Chambors
(49.2606°N, 1.8173°E)
Time: 09:06:23
(UTC+00:00)

Daily predictions for brighter satellites

Satellite Brightness Start Highest point End
(mag) Time Altitude Azimuth Time Altitude Azimuth Time Altitude Azimuth
Cosmos 2084 Rocket 3.4 16:37:09 10° SW 16:41:20 80° SE 16:45:32 10° NE
Cosmos 2100 Rocket 4.4 16:37:19 10° SSW 16:43:27 69° WNW 16:49:37 10° N
ATLAS CENTAUR R/B 2.5 16:40:48 10° WSW 16:43:52 29° NW 16:46:56 10° NNE
Cosmos 1441 Rocket 3.1 16:42:31 10° NNW 16:45:52 75° W 16:49:13 10° S
SAR-Lupe-4 4.0 16:43:08 10° SE 16:46:29 38° ENE 16:49:50 10° N
Cosmos 2221 Rocket 4.3 16:42:04 10° NNW 16:46:30 61° W 16:50:52 10° S
Cosmos 1833 Rocket 2.9 16:40:57 10° NNW 16:46:38 83° WSW 16:52:17 10° SSE
ARIANE 5 R/B 2.7 16:42:26 10° SE 16:47:10 46° ENE 16:51:57 10° N
USA 215 3.4 16:48:17 10° ESE 16:54:51 87° SSW 17:01:27 10° WNW
Timation 1 Rocket 4.5 16:49:08 10° NNW 16:54:58 52° NE 17:00:47 10° SE
IRS-P3 4.5 16:52:57 10° SE 16:57:58 43° ENE 17:02:59 10° N
MOS 1 Rocket 3.9 16:56:17 10° SE 17:00:06 31° ENE 17:04:05 10° N
ATLAS 5 CENTAUR R/B 2.3 16:56:03 10° NW 17:00:21 64° SW 17:05:41 10° SSE
Cosmos 1484 Rocket 3.9 17:00:42 10° S 17:04:03 43° W 17:07:28 10° NNW
Iridium 4 Rocket 4.2 17:01:18 10° SSW 17:06:13 54° W 17:10:46 10° N
Resurs 01 Rocket 3.6 17:08:57 10° NE 17:08:57 10° NE 17:09:08 10° NE
Cosmos 2233 Rocket 4.0 17:02:14 10° S 17:08:33 82° E 17:14:55 10° N
RESURS DK-1 2.3 17:05:12 10° NNW 17:09:10 56° NE 17:13:05 10° SE
Cosmos 1602 4.3 17:07:03 10° NNE 17:09:30 21° ENE 17:11:57 10° SE
Cosmos 407 Rocket 3.8 17:04:39 10° S 17:09:33 45° ESE 17:14:27 10° NE
Cosmos 1725 Rocket 4.4 17:03:19 10° SSW 17:09:35 71° W 17:15:55 10° N
Cosmos 2061 Rocket 4.0 17:04:47 10° S 17:11:04 78° E 17:17:19 10° NNE
ISS -3.0 17:11:51 10° SW 17:15:01 41° SSE 17:17:12 17° E
Cosmos 1782 Rocket 3.7 17:10:53 10° SSW 17:15:20 81° W 17:19:47 10° N
CZ-2D R/B 2.6 17:13:10 10° SSE 17:16:18 69° ENE 17:19:27 10° N
Cosmos 1869 3.3 17:13:44 10° SSE 17:17:06 44° E 17:20:28 10° NNE
ERS-1 4.5 17:13:12 10° SSE 17:18:19 71° ENE 17:23:24 10° N
USA 281 4.4 17:15:06 13° ENE 17:18:53 22° NE 17:23:38 10° N
SPOT 1/Viking Rocket 4.0 17:14:22 10° SE 17:19:07 39° ENE 17:23:56 10° N
Cosmos 1300 Rocket 4.0 17:15:10 10° SSW 17:19:31 67° WNW 17:23:54 10° N
COSMO-SKYMED 1 3.8 17:21:26 17° ENE 17:22:39 20° E 17:25:40 10° SE
SJ-12 3.6 17:19:19 10° SSE 17:23:07 82° ENE 17:26:55 10° NNW
AQUARIUS 4.0 17:22:32 10° SSE 17:26:55 73° ENE 17:31:20 10° N
SL-12 R/B(2) 4.4 17:19:35 10° SSW 17:27:24 65° ESE 17:36:56 10° NE
Cosmos 540 Rocket 3.4 17:24:04 10° NNW 17:29:15 79° ENE 17:34:21 10° SSE
BREEZE-M DEB (TANK) 2.4 17:26:56 10° SW 17:29:19 53° SSE 17:32:21 19° E
Cosmos 1400 Rocket 3.9 17:28:10 10° SE 17:31:09 22° E 17:31:12 22° E
Cosmos 1975 Rocket 3.5 17:28:18 10° NNW 17:32:37 65° W 17:36:56 10° S
Spot 4 Rocket 4.3 17:28:08 10° SE 17:32:56 43° ENE 17:37:44 10° N
Cosmos 1763 Rocket 3.6 17:29:28 10° NNW 17:34:43 81° WSW 17:39:51 10° SSE
Cosmos 1812 2.2 17:33:40 10° S 17:36:27 44° E 17:37:34 28° NE
Cosmos 1140 Rocket 4.1 17:36:22 10° SW 17:41:28 57° WNW 17:46:33 10° NNE
Cosmos 2151 Rocket 4.1 17:37:35 10° SSE 17:41:43 38° E 17:45:29 12° NNE
Cosmos 2058 2.8 17:38:44 10° N 17:42:40 58° ENE 17:46:35 10° SSE
SMAP 4.1 17:38:32 10° S 17:43:02 49° W 17:47:35 10° NNW
Cosmos 44 Rocket 3.4 17:39:35 10° SSW 17:44:15 57° ESE 17:47:07 23° NE
Cosmos 1943 Rocket 2.1 17:43:40 10° SSW 17:49:17 78° ESE 17:54:09 14° NNE
SKYMED 2 3.7 17:45:23 11° NNE 17:49:30 50° E 17:53:43 10° S
Helios 1A Rocket 3.5 17:51:57 28° SE 17:51:57 28° SE 17:54:09 10° SSE
Okean 1 Rocket 3.7 17:47:46 10° SSE 17:51:39 31° E 17:51:43 31° E
CZ-2D R/B 3.4 17:47:50 10° SSE 17:51:56 66° ENE 17:56:08 10° N
SJ-7 4.2 17:48:23 10° SSE 17:51:57 49° ENE 17:55:32 10° N
IRAS Rocket 4.2 17:46:57 10° SSE 17:52:25 63° ENE 17:57:53 10° NNW
Sich 1 Rocket 4.2 17:48:37 10° SSE 17:52:41 33° E 17:53:29 31° ENE
Cosmos 2082 Rocket 2.1 17:47:44 10° NNW 17:53:23 79° ENE 17:59:00 10° SSE
PSLV R/B 3.5 17:49:39 10° SE 17:53:32 48° ENE 17:57:26 10° N
Cosmos 1072 Rocket 4.4 17:51:36 10° S 17:57:39 65° E 18:03:42 10° NNE
Cosmos 2026 Rocket 4.3 17:52:07 10° N 17:57:45 38° ENE 18:03:26 10° SE
Cosmos 2278 Rocket 2.1 17:52:24 10° SSW 17:58:04 85° ESE 18:02:47 15° NNE
NOAA 6 4.2 17:55:23 10° SE 18:00:19 48° ENE 18:05:15 10° N
BREEZE-M DEB (TANK) 3.3 17:58:18 10° SW 18:01:03 58° SSE 18:03:16 32° E
Aureole 3 Rocket 2.2 17:58:09 10° SSW 18:01:09 78° W 18:03:11 20° N
BREEZE-M DEB (TANK) 2.8 17:59:26 10° WSW 18:02:00 85° SSE 18:04:09 33° ENE
SL-16 R/B 4.2 18:00:06 10° N 18:05:32 32° WNW 18:10:58 10° WSW
Geosat 4.1 18:04:10 31° ESE 18:06:14 50° NE 18:11:05 10° NNW
Cosmos 2251 Rocket 3.4 18:03:37 10° SSW 18:08:53 78° ESE 18:12:38 20° NNE
YAOGAN 1 2.4 18:07:08 10° SSE 18:11:23 78° ENE 18:15:40 10° N
Cosmos 371 Rocket 3.5 18:07:57 10° S 18:12:30 46° ESE 18:12:52 45° E
Cosmos 304 Rocket 3.9 18:09:03 10° S 18:13:35 48° ESE 18:13:57 47° E
Cosmos 841 Rocket 3.4 18:09:13 10° NNW 18:14:27 64° ENE 18:17:15 27° SE
SJ 16-02 1.2 18:10:53 10° S 18:15:08 62° ESE 18:15:42 55° ENE
SL-19 R/B 4.0 18:10:25 10° SSE 18:15:38 83° ENE 18:20:54 10° NNW
CZ-4C R/B 3.9 18:15:39 10° WNW 18:19:47 23° N 18:22:36 17° NNE
Nadezhda 4 Rocket 3.9 18:13:38 10° N 18:19:58 90° E 18:26:12 10° S
Cosmos 1862 3.3 18:18:44 10° NNW 18:22:20 67° W 18:25:56 10° S
Resurs 1-3 3.5 18:19:04 10° SSE 18:23:22 86° W 18:27:42 10° NNW
ATLAS 2AS CENTAUR R/B 3.0 18:17:39 10° NW 18:24:07 44° NNE 18:25:35 39° ENE
COSMOS 2406 3.1 18:20:27 10° NNW 18:26:11 78° ENE 18:29:07 30° SE
Cosmos 1627 Rocket 4.4 18:22:21 10° N 18:28:25 60° ENE 18:34:30 10° SSE
Cosmos 1656 Rocket 4.1 18:24:05 10° S 18:28:33 41° SE 18:28:33 41° SE
Cosmos 2195 Rocket 4.4 18:27:30 10° N 18:33:52 79° E 18:40:12 10° SSE
Cosmos 1536 Rocket 4.2 18:30:05 10° NNW 18:34:26 56° W 18:38:44 10° S
Okean 2 Rocket 3.1 18:32:06 10° SSW 18:36:29 79° W 18:37:52 43° N
Cosmos 1190 Rocket 4.2 18:34:32 10° SSW 18:39:49 72° WNW 18:42:26 30° NNE
Cosmos 2344 3.8 18:34:33 10° NW 18:42:22 77° NE 18:47:32 33° SE
Cosmos 676 Rocket 3.9 18:37:24 10° SSW 18:42:42 79° ESE 18:43:16 69° NE
Resurs 01 Rocket 3.2 18:46:22 25° N 18:46:22 25° N 18:48:14 10° N
Meteor 2-3 Rocket 3.6 18:40:01 10° NNW 18:45:46 88° ENE 18:49:59 19° S
Cosmos 2297 Rocket 4.5 18:47:42 10° N 18:48:17 11° N 18:48:17 11° N
ISS -1.7 18:48:22 10° W 18:50:07 28° W 18:50:07 28° W
Cosmos 1954 Rocket 4.2 18:47:32 10° SSW 18:52:47 69° WNW 18:54:18 45° N
COSMO-SKYMED 1 3.4 18:57:48 44° NW 18:58:12 46° WNW 19:02:08 10° SW
USA 281 3.0 19:02:00 69° E 19:02:26 72° ENE 19:09:00 10° NNW
Cosmos 1400 Rocket 4.5 19:02:59 10° SW 19:05:52 30° W 19:05:52 30° W
Cosmos 1943 Rocket 4.1 19:29:06 10° W 19:33:37 24° NW 19:35:40 20° NNW
Cosmos 2278 Rocket 4.2 19:38:25 10° W 19:42:52 23° NW 19:44:37 20° NNW
SJ 16-02 4.1 19:50:37 10° W 19:52:17 16° WNW 19:52:17 16° WNW
CZ-4C R/B 4.4 20:05:08 10° NW 20:07:32 20° NNW 20:07:32 20° NNW
ATLAS 2AS CENTAUR R/B 3.7 20:08:40 10° NW 20:13:01 40° WNW 20:13:01 40° WNW
